Falfurrias, TX

5:12 PM CDT on October 20, 2019 (GMT -0500)
Falfurrias

Weather History for KBKS - May, 2019

Change the Weather History Date:

Tuesday, May 28, 2019

  Actual Average (KNQI) Record (KNQI)
Temperature  
Mean Temperature 86 °F -  
Max Temperature 99 °F 89 °F 98 °F (2018)
Min Temperature 75 °F 70 °F 68 °F (1997)
Cooling Degree Days 22    
Growing Degree Days 36 (Base 50)    
Moisture  
Dew Point 71 °F    
Average Humidity 65    
Maximum Humidity 89    
Minimum Humidity 33    
Precipitation  
Precipitation 0.00 in - - ()
Sea Level Pressure  
Sea Level Pressure 29.72 in    
Wind  
Wind Speed 11 mph (SE)    
Max Wind Speed 22 mph    
Max Gust Speed 30 mph    
Visibility 10 miles    
Events      
Averages and records for this station are not official NWS values.
T = Trace of Precipitation, MM = Missing Value Source: NWS Daily Summary

Daily Weather History Graph

Daily Weather History Graph

Search for Another Location

Airport or City:

Astronomy

May. 28, 2019 Rise Set
Actual Time 6:38 AM CDT 8:20 PM CDT
Civil Twilight 6:13 AM CDT 8:46 PM CDT
Nautical Twilight 5:41 AM CDT 9:17 PM CDT
Astronomical Twilight 5:09 AM CDT 9:50 PM CDT
Moon 3:11 AM CDT (5/28) 3:09 PM CDT (5/28)
Length of Visible Light 14h 33m
Length of Day
13h 41m
Waning Crescent, 31% of the Moon is Illuminated
May 28
Waning Crescent
Jun 3
New
Jun 10
First Quarter
Jun 17
Full
Jun 25
Last Quarter

Hourly Weather History & Observations

Time (CDT) Temp. Heat Index Dew Point Humidity Pressure Visibility Wind Dir Wind Speed Gust Speed Precip Events Conditions
12:15 AM 77.9 °F - 71.6 °F 81% 29.81 in 10.0 mi SE 5.8 mph - N/A   Clear
12:35 AM 77.2 °F - 71.6 °F 83% 29.80 in 10.0 mi SE 6.9 mph - N/A   Clear
12:55 AM 77.0 °F - 71.2 °F 82% 29.80 in 10.0 mi SE 9.2 mph - N/A   Clear
1:15 AM 76.6 °F - 71.4 °F 84% 29.79 in 10.0 mi SE 6.9 mph - N/A   Clear
1:35 AM 76.3 °F - 71.2 °F 84% 29.78 in 10.0 mi SE 6.9 mph - N/A   Clear
1:55 AM 76.1 °F - 71.4 °F 85% 29.78 in 10.0 mi SE 5.8 mph - N/A   Clear
2:15 AM 75.6 °F - 71.2 °F 86% 29.77 in 10.0 mi SE 8.1 mph - N/A   Clear
2:35 AM 75.4 °F - 71.4 °F 87% 29.76 in 10.0 mi SE 6.9 mph - N/A   Clear
2:55 AM 75.2 °F - 71.2 °F 87% 29.75 in 10.0 mi SE 6.9 mph - N/A   Clear
3:15 AM 75.2 °F - 71.6 °F 89% 29.74 in 7.0 mi SE 8.1 mph - N/A   Mostly Cloudy
3:35 AM 75.4 °F - 71.8 °F 89% 29.74 in 7.0 mi SE 8.1 mph - N/A   Mostly Cloudy
3:55 AM 75.7 °F - 72.1 °F 89% 29.74 in 7.0 mi SSE 9.2 mph - N/A   Mostly Cloudy
4:15 AM 76.3 °F - 72.3 °F 87% 29.74 in 10.0 mi SSE 8.1 mph - N/A   Overcast
4:35 AM 77.0 °F - 72.5 °F 86% 29.74 in 10.0 mi SSE 15.0 mph 19.6 mph N/A   Overcast
4:55 AM 76.6 °F - 72.1 °F 86% 29.75 in 10.0 mi SSE 11.5 mph 18.4 mph N/A   Mostly Cloudy
5:15 AM 77.0 °F - 72.0 °F 84% 29.75 in 10.0 mi SSE 12.7 mph 16.1 mph N/A   Mostly Cloudy
5:35 AM 76.8 °F - 71.8 °F 84% 29.75 in 10.0 mi SSE 10.4 mph - N/A   Mostly Cloudy
5:55 AM 77.0 °F - 71.8 °F 84% 29.74 in 10.0 mi SE 9.2 mph - N/A   Mostly Cloudy
6:15 AM 77.0 °F - 71.6 °F 83% 29.75 in 10.0 mi SSE 9.2 mph - N/A   Mostly Cloudy
6:35 AM 77.4 °F - 71.6 °F 82% 29.75 in 10.0 mi SE 9.2 mph - N/A   Scattered Clouds
6:55 AM 77.5 °F - 71.6 °F 82% 29.75 in 10.0 mi SE 6.9 mph - N/A   Scattered Clouds
7:15 AM 77.9 °F - 72.0 °F 82% 29.76 in 10.0 mi SE 5.8 mph - N/A   Mostly Cloudy
7:35 AM 78.3 °F - 72.0 °F 81% 29.76 in 10.0 mi SE 5.8 mph - N/A   Scattered Clouds
7:55 AM 79.3 °F - 72.0 °F 78% 29.77 in 10.0 mi SSE 9.2 mph - N/A   Scattered Clouds
8:15 AM 80.8 °F 85.1 °F 72.3 °F 75% 29.77 in 10.0 mi SSE 9.2 mph - N/A   Mostly Cloudy
8:35 AM 82.8 °F 88.4 °F 72.9 °F 72% 29.77 in 10.0 mi SSE 11.5 mph - N/A   Mostly Cloudy
8:55 AM 84.2 °F 90.6 °F 73.2 °F 69% 29.77 in 10.0 mi SSE 13.8 mph 18.4 mph N/A   Mostly Cloudy
9:15 AM 84.0 °F 90.2 °F 72.9 °F 69% 29.78 in 10.0 mi South 13.8 mph - N/A   Overcast
9:35 AM 84.2 °F 90.6 °F 72.9 °F 69% 29.78 in 10.0 mi SSE 11.5 mph 24.2 mph N/A   Overcast
9:55 AM 85.8 °F 92.2 °F 72.5 °F 64% 29.78 in 10.0 mi SSE 11.5 mph 16.1 mph N/A   Mostly Cloudy
10:15 AM 86.7 °F 92.9 °F 71.6 °F 61% 29.78 in 10.0 mi South 18.4 mph 25.3 mph N/A   Overcast
10:35 AM 86.5 °F 92.9 °F 72.0 °F 62% 29.78 in 10.0 mi South 12.7 mph 18.4 mph N/A   Mostly Cloudy
10:55 AM 88.3 °F 95.0 °F 71.8 °F 58% 29.77 in 10.0 mi South 11.5 mph - N/A   Mostly Cloudy
11:15 AM 89.6 °F 96.2 °F 71.4 °F 55% 29.76 in 10.0 mi South 11.5 mph - N/A   Mostly Cloudy
11:35 AM 91.6 °F 97.2 °F 69.8 °F 49% 29.75 in 10.0 mi SSE 17.3 mph 25.3 mph N/A   Mostly Cloudy
11:55 AM 91.2 °F 96.5 °F 69.4 °F 49% 29.75 in 10.0 mi SSE 17.3 mph 21.9 mph N/A   Scattered Clouds
12:15 PM 90.7 °F 95.4 °F 69.1 °F 49% 29.74 in 10.0 mi SSE 17.3 mph 27.6 mph N/A   Scattered Clouds
12:35 PM 93.9 °F 99.1 °F 68.7 °F 44% 29.73 in 10.0 mi SSE 16.1 mph 27.6 mph N/A   Scattered Clouds
12:55 PM 95.2 °F 99.9 °F 68.0 °F 41% 29.73 in 10.0 mi South 15.0 mph 25.3 mph N/A   Scattered Clouds
1:15 PM 95.9 °F 100.1 °F 67.5 °F 39% 29.72 in 10.0 mi SSE 15.0 mph - N/A   Clear
1:35 PM 96.3 °F 100.2 °F 67.1 °F 38% 29.71 in 10.0 mi SSE 21.9 mph 27.6 mph N/A   Clear
1:55 PM 96.3 °F 99.7 °F 66.0 °F 37% 29.70 in 10.0 mi SSE 18.4 mph 25.3 mph N/A   Clear
2:15 PM 96.6 °F 99.8 °F 65.8 °F 36% 29.69 in 10.0 mi SSE 16.1 mph 27.6 mph N/A   Clear
2:35 PM 97.3 °F 101.1 °F 66.4 °F 36% 29.68 in 10.0 mi SSE 15.0 mph 26.5 mph N/A   Clear
2:55 PM 97.9 °F 101.5 °F 66.2 °F 35% 29.67 in 10.0 mi SE 15.0 mph 25.3 mph N/A   Clear
3:15 PM 97.9 °F 102.1 °F 66.4 °F 36% 29.66 in 10.0 mi SSE 19.6 mph 26.5 mph N/A   Clear
3:35 PM 98.8 °F 102.5 °F 66.2 °F 34% 29.65 in 10.0 mi SE 18.4 mph 25.3 mph N/A   Clear
3:55 PM 98.8 °F 101.9 °F 65.3 °F 33% 29.64 in 10.0 mi SE 11.5 mph 23.0 mph N/A   Clear
4:15 PM 96.8 °F 100.7 °F 66.2 °F 37% 29.64 in 10.0 mi SSE 12.7 mph 28.8 mph N/A   Clear
4:35 PM 98.6 °F 103.5 °F 67.1 °F 36% 29.64 in 10.0 mi SE 17.3 mph 21.9 mph N/A   Scattered Clouds
4:55 PM 97.7 °F 101.7 °F 66.7 °F 36% 29.63 in 10.0 mi SSE 17.3 mph 23.0 mph N/A   Scattered Clouds
5:15 PM 97.0 °F 101.0 °F 67.1 °F 37% 29.64 in 10.0 mi SE 12.7 mph 23.0 mph N/A   Scattered Clouds
5:35 PM 97.2 °F 102.5 °F 68.4 °F 39% 29.63 in 10.0 mi SE 16.1 mph 20.7 mph N/A   Scattered Clouds
5:55 PM 94.3 °F 102.2 °F 71.8 °F 48% 29.63 in 10.0 mi SE 16.1 mph 24.2 mph N/A   Scattered Clouds
6:15 PM 93.4 °F 101.5 °F 72.1 °F 50% 29.63 in 10.0 mi SE 15.0 mph 24.2 mph N/A   Scattered Clouds
6:35 PM 91.4 °F 98.9 °F 72.3 °F 53% 29.64 in 10.0 mi ESE 15.0 mph 26.5 mph N/A   Clear
6:55 PM 90.1 °F 97.3 °F 72.0 °F 55% 29.64 in 10.0 mi SE 16.1 mph 29.9 mph N/A   Clear
7:15 PM 88.7 °F 95.7 °F 72.0 °F 58% 29.65 in 10.0 mi ESE 15.0 mph 21.9 mph N/A   Clear
7:35 PM 87.4 °F 93.5 °F 71.6 °F 59% 29.65 in 10.0 mi SE 13.8 mph 23.0 mph N/A   Clear
7:55 PM 86.5 °F 92.5 °F 71.6 °F 61% 29.66 in 10.0 mi ESE 15.0 mph 25.3 mph N/A   Clear
8:15 PM 85.5 °F 91.1 °F 71.8 °F 63% 29.67 in 10.0 mi ESE 12.7 mph 20.7 mph N/A   Clear
8:35 PM 84.7 °F 90.4 °F 72.0 °F 65% 29.68 in 10.0 mi ESE 15.0 mph 21.9 mph N/A   Clear
8:55 PM 83.7 °F 89.2 °F 72.1 °F 68% 29.68 in 10.0 mi ESE 15.0 mph 20.7 mph N/A   Clear
9:15 PM 82.9 °F 88.5 °F 72.5 °F 71% 29.70 in 10.0 mi ESE 13.8 mph 19.6 mph N/A   Clear
9:35 PM 82.4 °F 87.7 °F 72.5 °F 72% 29.69 in 10.0 mi ESE 10.4 mph 17.3 mph N/A   Clear
9:55 PM 81.9 °F 87.0 °F 73.0 °F 74% 29.70 in 10.0 mi SE 11.5 mph 17.3 mph N/A   Clear
10:15 PM 81.5 °F 86.5 °F 73.0 °F 75% 29.71 in 10.0 mi SE 11.5 mph - N/A   Clear
10:55 PM 81.5 °F 86.9 °F 73.6 °F 77% 29.74 in 10.0 mi SE 4.6 mph - N/A   Mostly Cloudy
11:15 PM 81.7 °F 87.1 °F 73.6 °F 76% 29.73 in 10.0 mi SE 13.8 mph 19.6 mph N/A   Mostly Cloudy
11:35 PM 81.7 °F 87.1 °F 73.6 °F 76% 29.73 in 10.0 mi SE 12.7 mph 17.3 mph N/A   Overcast
11:55 PM 81.7 °F 87.3 °F 73.8 °F 77% 29.73 in 10.0 mi SE 12.7 mph - N/A   Overcast